WJORDANBC Weather Reports


time (UTC)temp
F
wind
direction
speed
knots
gust
knots
rain 1hr
in
rain 24hr
in
rain mn
in
humidity
%
barometer
mb
20260505230122 55 128 3.5 8.7 0.00 0.10 0.10 54 1004.6
20260505224612 55 178 1.7 8.7 0.00 0.10 0.10 57 1004.7
20260505223109 53 132 5.2 7.8 0.00 0.10 0.10 60 1004.9
20260505221616 52 162 0.9 8.7 0.00 0.10 0.10 62 1005.1
20260505220144 52 130 4.3 9.6 0.00 0.10 0.10 58 1005.2
20260505214619 53 123 3.5 7.8 0.00 0.10 0.10 56 1005.4
20260505213103 53 116 2.6 7.0 0.00 0.10 0.10 56 1005.3
20260505211615 53 143 1.7 7.8 0.00 0.10 0.10 57 1005.2
20260505210058 53 142 6.1 9.6 0.00 0.10 0.10 57 1005.0
20260505204543 53 169 5.2 10.4 0.00 0.10 0.10 60 1005.0
20260505203038 52 168 7.0 11.3 0.00 0.10 0.10 60 1005.0
20260505201526 52 142 7.0 12.2 0.00 0.10 0.10 61 1004.9
20260505200030 51 184 6.1 11.3 0.00 0.10 0.10 62 1005.0
20260505194600 51 155 6.1 11.3 0.00 0.10 0.10 62 1005.0
20260505193050 51 136 7.8 12.2 0.00 0.10 0.10 63 1004.8
20260505191549 52 155 6.1 12.2 0.00 0.10 0.10 64 1004.7
20260505190051 51 130 7.0 12.2 0.00 0.10 0.10 64 1004.6
20260505184556 51 140 8.7 13.9 0.00 0.10 0.10 64 1004.6
20260505183103 51 144 7.8 13.0 0.00 0.10 0.10 64 1004.5
20260505181603 51 184 7.0 15.6 0.00 0.10 0.10 65 1004.3
20260505180112 50 196 8.7 15.6 0.00 0.10 0.10 68 1004.3
20260505174618 49 157 8.7 13.9 0.00 0.10 0.10 70 1004.4
20260505173118 48 172 7.0 15.6 0.00 0.10 0.10 73 1004.1
20260505171621 48 167 9.6 16.5 0.00 0.10 0.10 72 1004.2
20260505170002 48 111 7.8 15.6 0.00 0.10 0.10 74 1004.0
20260505164507 47 167 9.6 17.4 0.00 0.10 0.10 74 1004.0
20260505163011 47 157 9.6 20.9 0.00 0.10 0.10 75 1004.1
20260505161520 48 171 8.7 23.5 0.00 0.10 0.10 74 1003.9
20260505153051 48 168 8.7 20.9 0.00 0.10 0.10 69 1003.6
20260505151553 48 163 9.6 17.4 0.00 0.10 0.10 69 1003.4
20260505140126 49 143 7.8 15.6 0.00 0.10 0.10 67 1002.6
20260505130117 49 201 3.5 10.4 0.00 0.10 0.10 80 1001.9
20260505124605 48 200 3.5 11.3 0.00 0.10 0.10 81 1001.7
20260505123101 47 233 0.9 4.3 0.00 0.10 0.10 83 1001.5
20260505121557 47 242 2.6 7.0 0.00 0.10 0.10 81 1001.5
20260505120113 47 254 3.5 7.0 0.02 0.10 0.10 81 1001.4
20260505114603 47 270 5.2 12.2 0.04 0.10 0.10 81 1001.3
20260505113103 48 258 9.6 16.5 0.08 0.10 0.10 81 1001.3
20260505111602 48 232 9.6 13.0 0.10 0.10 0.10 84 1001.4
20260505110110 48 237 7.8 12.2 0.07 0.07 0.07 83 1001.6
20260505101607 50 234 1.7 4.3 0.00 0.00 0.00 74 1001.5
20260505100114 50 287 0.0 5.2 0.00 0.00 0.00 77 1001.7
20260505094622 49 269 2.6 6.1 0.00 0.00 0.00 78 1001.6
20260505093004 49 267 2.6 5.2 0.00 0.00 0.00 78 1001.6
20260505091507 50 267 2.6 5.2 0.00 0.00 0.00 76 1001.6
20260505090010 51 265 0.9 5.2 0.00 0.00 0.00 72 1001.7
20260505084522 51 296 0.9 7.8 0.00 0.00 0.00 71 1001.9
20260505083020 52 229 1.7 10.4 0.00 0.00 0.00 66 1002.0
20260505081515 52 200 1.7 9.6 0.00 0.00 0.00 64 1002.0
20260505080020 53 162 5.2 12.2 0.00 0.00 0.00 62 1001.9
20260505074514 53 157 7.0 13.0 0.00 0.00 0.00 60 1001.8
20260505073042 53 184 7.8 13.9 0.00 0.00 0.00 58 1001.9
20260505071510 54 205 7.8 20.0 0.00 0.00 0.00 56 1001.7
20260505070003 53 189 10.4 22.6 0.00 0.00 0.00 58 1001.7
20260505064625 53 143 9.6 16.5 0.00 0.00 0.00 59 1001.7
20260505063006 53 179 9.6 20.9 0.00 0.00 0.00 60 1001.6
20260505061510 53 213 16.5 24.3 0.00 0.00 0.00 60 1001.6
20260505060008 53 207 13.0 26.1 0.00 0.00 0.00 60 1001.6
20260505054513 54 163 14.8 28.7 0.00 0.00 0.00 59 1001.6
20260505053016 55 222 13.0 24.3 0.00 0.00 0.00 57 1001.4
20260505051523 54 200 12.2 22.6 0.00 0.00 0.00 58 1001.3
20260505041559 56 203 8.7 13.9 0.00 0.00 0.00 50 1000.6
20260505040059 55 193 4.3 8.7 0.00 0.00 0.00 54 1000.4
20260505034550 55 214 0.9 7.0 0.00 0.00 0.00 53 1000.3
20260505033022 57 214 0.9 7.8 0.00 0.00 0.00 51 1000.1
20260505031543 58 168 2.6 12.2 0.00 0.00 0.00 48 1000.0
20260505030042 58 194 6.1 15.6 0.00 0.00 0.00 46 999.8
20260505024556 59 216 7.8 13.0 0.00 0.00 0.00 45 999.6
20260505023048 60 221 7.8 12.2 0.00 0.00 0.00 44 999.5
20260505021555 61 173 6.1 13.0 0.00 0.00 0.00 43 999.3
20260505020051 62 144 7.0 16.5 0.00 0.00 0.00 40 999.3
20260505014607 64 188 0.0 1.7 0.00 0.00 0.00 37 999.3
20260505013059 64 207 0.0 3.5 0.00 0.00 0.00 36 999.4
20260505011608 65 96 0.0 0.0 0.00 0.00 0.00 37 999.5
20260505010055 65 90 0.0 3.5 0.00 0.00 0.00 37 999.7
20260505004554 64 100 0.0 5.2 0.00 0.00 0.00 37 999.9
20260505003042 64 71 2.6 9.6 0.00 0.00 0.00 37 999.8
20260505001518 65 86 4.3 9.6 0.00 0.00 0.00 36 999.9
20260505000050 65 94 5.2 10.4 0.00 0.00 0.00 35 999.9
20260504234548 66 115 0.9 9.6 0.00 0.00 0.00 33 1000.0
20260504233105 66 135 0.9 8.7 0.00 0.00 0.00 35 1000.3
20260504231601 66 113 5.2 10.4 0.00 0.00 0.00 33 1000.3